• In Netherlands
  • List of Countries
  • For 7 days
  • Water Temperature
  • Satellite Maps
  • Weather Map
  • Weather Widgets
  • user-avatar
    Login

    Hourly Weather Neuquén

    Today, 21 January, Saturday

    Time Temperature Precipitation Wind Pressure Humidity
    00:00 +29°C° 0 mm 7 mps 732 mmHg 22%
    01:00 +28°C° 0 mm 7 mps 732 mmHg 23%
    02:00 +27°C° 0 mm 6 mps 732 mmHg 23%
    03:00 +26°C° 0 mm 5 mps 733 mmHg 23%
    04:00 +26°C° 0 mm 5 mps 733 mmHg 23%
    05:00 +27°C° 0 mm 5 mps 733 mmHg 21%
    06:00 +28°C° 0 mm 5 mps 734 mmHg 19%
    07:00 +29°C° 0 mm 5 mps 734 mmHg 17%
    08:00 +30°C° 0 mm 4 mps 734 mmHg 16%
    09:00 +33°C° 0 mm 4 mps 734 mmHg 15%
    10:00 +34°C° 0 mm 4 mps 734 mmHg 13%
    11:00 +35°C° 0 mm 4 mps 734 mmHg 13%
    12:00 +36°C° 0 mm 3 mps 733 mmHg 12%
    13:00 +37°C° 0 mm 3 mps 733 mmHg 11%
    14:00 +38°C° 0 mm 3 mps 732 mmHg 11%
    15:00 +38°C° 0 mm 3 mps 732 mmHg 11%
    16:00 +39°C° 0 mm 2 mps 731 mmHg 11%
    17:00 +37°C° 0 mm 3 mps 731 mmHg 12%
    18:00 +36°C° 0 mm 3 mps 731 mmHg 14%
    19:00 +34°C° 0 mm 3 mps 731 mmHg 15%
    20:00 +33°C° 0 mm 3 mps 731 mmHg 17%
    21:00 +32°C° 0 mm 4 mps 732 mmHg 19%
    22:00 +30°C° 0 mm 4 mps 732 mmHg 21%
    23:00 +29°C° 0 mm 4 mps 733 mmHg 22%

    Tomorrow, 22 January, Sunday

    Time Temperature Precipitation Wind Pressure Humidity
    00:00 +28°C° 0 mm 4 mps 733 mmHg 24%
    01:00 +27°C° 0 mm 4 mps 733 mmHg 25%
    02:00 +26°C° 0 mm 4 mps 733 mmHg 31%
    03:00 +25°C° 0 mm 5 mps 733 mmHg 37%
    04:00 +23°C° 0 mm 5 mps 734 mmHg 43%
    05:00 +25°C° 0 mm 5 mps 734 mmHg 42%
    06:00 +25°C° 0 mm 5 mps 734 mmHg 40%
    07:00 +26°C° 0 mm 5 mps 735 mmHg 39%
    08:00 +28°C° 0 mm 5 mps 735 mmHg 35%
    09:00 +29°C° 0 mm 5 mps 735 mmHg 31%
    10:00 +32°C° 0 mm 5 mps 735 mmHg 27%
    11:00 +33°C° 0 mm 5 mps 734 mmHg 25%
    12:00 +34°C° 0 mm 4 mps 734 mmHg 23%
    13:00 +36°C° 0 mm 4 mps 733 mmHg 21%
    14:00 +36°C° 0 mm 4 mps 733 mmHg 20%
    15:00 +36°C° 0 mm 3 mps 732 mmHg 20%
    16:00 +36°C° 0 mm 3 mps 732 mmHg 19%
    17:00 +35°C° 0 mm 3 mps 732 mmHg 20%
    18:00 +34°C° 0 mm 3 mps 732 mmHg 21%
    19:00 +33°C° 0 mm 3 mps 732 mmHg 23%
    20:00 +31°C° 0 mm 3 mps 732 mmHg 24%
    21:00 +30°C° 0 mm 3 mps 733 mmHg 26%
    22:00 +29°C° 0 mm 3 mps 733 mmHg 27%
    23:00 +28°C° 0 mm 3 mps 733 mmHg 32%

    Day after tomorrow, 23 January, Monday

    Time Temperature Precipitation Wind Pressure Humidity
    00:00 +27°C° 0 mm 3 mps 733 mmHg 38%
    01:00 +26°C° 0 mm 3 mps 733 mmHg 43%
    02:00 +25°C° 0 mm 2 mps 733 mmHg 47%
    03:00 +24°C° 0 mm 2 mps 733 mmHg 51%
    04:00 +24°C° 0 mm 1 mps 733 mmHg 55%
    05:00 +25°C° 0 mm 2 mps 733 mmHg 48%
    06:00 +27°C° 0 mm 3 mps 733 mmHg 41%
    07:00 +29°C° 0 mm 4 mps 733 mmHg 34%
    08:00 +32°C° 0 mm 4 mps 733 mmHg 28%
    09:00 +34°C° 0 mm 5 mps 732 mmHg 22%
    10:00 +36°C° 0 mm 5 mps 732 mmHg 16%
    11:00 +38°C° 0 mm 6 mps 731 mmHg 14%
    12:00 +39°C° 0 mm 6 mps 730 mmHg 12%
    13:00 +40°C° 0 mm 7 mps 730 mmHg 10%
    14:00 +40°C° 0 mm 7 mps 729 mmHg 10%
    15:00 +41°C° 0 mm 8 mps 729 mmHg 10%
    16:00 +41°C° 0 mm 8 mps 728 mmHg 9%
    17:00 +38°C° 0 mm 10 mps 729 mmHg 13%
    18:00 +36°C° 0 mm 11 mps 729 mmHg 16%
    19:00 +33°C° 0 mm 13 mps 730 mmHg 20%
    20:00 +31°C° 0 mm 12 mps 730 mmHg 23%
    21:00 +28°C° 0 mm 12 mps 731 mmHg 27%
    22:00 +26°C° 0 mm 12 mps 732 mmHg 31%
    23:00 +26°C° 0 mm 11 mps 732 mmHg 31%

    24 January, Tuesday

    Time Temperature Precipitation Wind Pressure Humidity
    00:00 +24°C° 0 mm 11 mps 732 mmHg 31%
    01:00 +23°C° 0 mm 10 mps 733 mmHg 32%
    02:00 +22°C° 0 mm 9 mps 733 mmHg 34%
    03:00 +22°C° 0 mm 8 mps 733 mmHg 36%
    04:00 +21°C° 0 mm 7 mps 734 mmHg 39%
    05:00 +22°C° 0 mm 7 mps 735 mmHg 37%
    06:00 +22°C° 0 mm 7 mps 735 mmHg 36%
    07:00 +23°C° 0 mm 7 mps 736 mmHg 34%
    08:00 +26°C° 0 mm 6 mps 736 mmHg 29%
    09:00 +27°C° 0 mm 6 mps 736 mmHg 24%
    10:00 +28°C° 0 mm 5 mps 736 mmHg 19%
    11:00 +29°C° 0 mm 4 mps 736 mmHg 17%
    12:00 +30°C° 0 mm 4 mps 736 mmHg 15%
    13:00 +31°C° 0 mm 3 mps 736 mmHg 12%
    14:00 +33°C° 0 mm 3 mps 735 mmHg 12%
    15:00 +33°C° 0 mm 3 mps 735 mmHg 11%
    16:00 +33°C° 0 mm 3 mps 735 mmHg 11%
    17:00 +31°C° 0 mm 3 mps 735 mmHg 12%
    18:00 +30°C° 0 mm 4 mps 735 mmHg 13%
    19:00 +28°C° 0 mm 5 mps 735 mmHg 14%
    20:00 +27°C° 0 mm 5 mps 736 mmHg 17%
    21:00 +26°C° 0 mm 6 mps 736 mmHg 20%
    22:00 +23°C° 0 mm 7 mps 737 mmHg 24%
    23:00 +23°C° 0 mm 7 mps 736 mmHg 28%

    25 January, Wednesday

    Time Temperature Precipitation Wind Pressure Humidity
    00:00 +22°C° 0 mm 6 mps 736 mmHg 32%
    01:00 +21°C° 0 mm 5 mps 736 mmHg 37%
    02:00 +20°C° 0 mm 5 mps 736 mmHg 40%
    03:00 +20°C° 0 mm 5 mps 736 mmHg 43%
    04:00 +19°C° 0 mm 5 mps 736 mmHg 46%
    05:00 +21°C° 0 mm 6 mps 735 mmHg 41%
    06:00 +22°C° 0 mm 6 mps 735 mmHg 37%
    07:00 +23°C° 0 mm 7 mps 735 mmHg 32%
    08:00 +26°C° 0 mm 7 mps 735 mmHg 27%
    09:00 +29°C° 0 mm 7 mps 734 mmHg 22%
    10:00 +32°C° 0 mm 7 mps 734 mmHg 17%
    11:00 +34°C° 0 mm 7 mps 733 mmHg 15%
    12:00 +36°C° 0 mm 7 mps 732 mmHg 13%
    13:00 +39°C° 0 mm 7 mps 731 mmHg 12%
    14:00 +40°C° 0 mm 6 mps 731 mmHg 11%
    15:00 +40°C° 0 mm 5 mps 730 mmHg 11%
    16:00 +41°C° 0 mm 5 mps 729 mmHg 10%
    17:00 +38°C° 0 mm 4 mps 729 mmHg 12%
    18:00 +36°C° 0 mm 4 mps 729 mmHg 14%
    19:00 +34°C° 0 mm 4 mps 729 mmHg 15%
    20:00 +33°C° 0 mm 4 mps 730 mmHg 16%
    21:00 +32°C° 0 mm 5 mps 730 mmHg 17%
    22:00 +30°C° 0 mm 6 mps 730 mmHg 18%
    23:00 +29°C° 0 mm 6 mps 730 mmHg 20%

    26 January, Thursday

    Time Temperature Precipitation Wind Pressure Humidity
    00:00 +28°C° 0 mm 6 mps 731 mmHg 22%
    01:00 +26°C° 0 mm 5 mps 731 mmHg 24%
    02:00 +26°C° 0 mm 5 mps 731 mmHg 26%
    03:00 +25°C° 0 mm 4 mps 732 mmHg 28%
    04:00 +23°C° 0 mm 4 mps 732 mmHg 29%
    05:00 +25°C° 0 mm 4 mps 733 mmHg 26%
    06:00 +27°C° 0 mm 4 mps 733 mmHg 23%
    07:00 +28°C° 0 mm 4 mps 734 mmHg 20%
    08:00 +29°C° 0 mm 4 mps 734 mmHg 18%
    09:00 +31°C° 0 mm 3 mps 734 mmHg 16%
    10:00 +34°C° 0 mm 3 mps 734 mmHg 13%
    11:00 +35°C° 0 mm 3 mps 734 mmHg 12%
    12:00 +36°C° 0 mm 2 mps 733 mmHg 10%
    13:00 +38°C° 0 mm 2 mps 733 mmHg 8%
    14:00 +38°C° 0 mm 2 mps 732 mmHg 7%
    15:00 +39°C° 0 mm 2 mps 732 mmHg 7%
    16:00 +40°C° 0 mm 2 mps 731 mmHg 6%
    17:00 +38°C° 0 mm 2 mps 731 mmHg 7%
    18:00 +37°C° 0 mm 3 mps 731 mmHg 8%
    19:00 +35°C° 0 mm 3 mps 731 mmHg 9%
    20:00 +34°C° 0 mm 4 mps 731 mmHg 9%
    21:00 +33°C° 0 mm 4 mps 731 mmHg 10%
    22:00 +32°C° 0 mm 4 mps 732 mmHg 11%
    23:00 +30°C° 0 mm 3 mps 731 mmHg 12%
    Show more